Date String (YYYY-MM-DD hh:mm:ss) UTC,Instrument flags,Ambient pressure (hPa),Sample flow (lpm),Bypass flow (lpm),Sample temperature (°C),Ambient temperature (°C),ASC tube jacket temperature (°C),LED temperature (°C),Box temperature (°C),Sample RH (%),Span deviation,Mass concentration (μg/m³),Mass concentration (μg/m³),Mass concentration (μg/m³)
DateTimeUTC,F1_M11,P_M11,Q1_M11,Q2_M11,T1_M11,T2_M11,T3_M11,T4_M11,T5_M11,U1_M11,ZSPAN_M11,X0_M11,X2_M11,X1_M11
2023-03-01 06:00:00,,0817.3,5.01,0.00,21.6,19.6,00.0,30.7,22.9,06.3,0000.0,0003.45,0001.46,0000.89
2023-03-01 06:01:00,,0817.3,4.99,0.00,21.7,21.1,00.0,30.6,23.3,06.4,0000.0,0003.53,0001.49,0000.88
2023-03-01 06:02:00,,0817.3,5.01,0.00,21.8,22.2,00.0,30.6,23.7,06.5,0000.0,0003.52,0001.50,0000.89
2023-03-01 06:03:00,,0817.3,5.02,0.00,22.0,22.9,00.0,30.7,23.9,06.4,0000.0,0003.64,0001.53,0000.89
2023-03-01 06:04:00,,0817.2,5.02,0.00,22.0,22.3,00.0,30.7,23.9,06.3,0000.0,0003.70,0001.54,0000.90
2023-03-01 06:05:00,,0817.2,4.99,0.00,22.0,21.6,00.0,30.8,23.6,06.3,0000.0,0004.77,0001.56,0000.90
2023-03-01 06:06:00,,0817.2,4.99,0.00,21.9,21.0,00.0,30.7,23.4,06.2,0000.0,0004.45,0001.59,0000.90
2023-03-01 06:07:00,,0817.2,5.00,0.00,21.8,20.5,00.0,30.7,23.3,06.3,0000.0,0004.41,0001.61,0000.91
2023-03-01 06:08:00,,0817.2,5.00,0.00,21.7,20.1,00.0,30.7,23.1,06.3,0000.0,0004.82,0001.62,0000.91
2023-03-01 06:09:00,,0817.2,5.01,0.00,21.7,19.8,00.0,30.7,23.0,06.3,0000.0,0004.91,0001.65,0000.91
2023-03-01 06:10:00,,0817.2,5.01,0.00,21.6,19.6,00.0,30.6,22.9,06.4,0000.0,0004.90,0001.64,0000.92
2023-03-01 06:11:00,,0817.2,5.00,0.00,21.5,19.7,00.0,30.6,22.9,06.5,0000.0,0004.97,0001.65,0000.92
2023-03-01 06:12:00,,0817.2,4.97,0.00,21.6,20.8,00.0,30.6,23.3,06.5,0000.0,0004.95,0001.65,0000.93
2023-03-01 06:13:00,,0817.2,5.00,0.00,21.8,22.0,00.0,30.6,23.6,06.4,0000.0,0004.91,0001.64,0000.92
2023-03-01 06:14:00,,0817.1,4.94,0.00,21.9,22.8,00.0,30.6,23.9,06.4,0000.0,0004.88,0001.63,0000.93
2023-03-01 06:15:00,,0817.2,5.01,0.00,22.0,22.4,00.0,30.6,23.8,06.4,0000.0,0004.69,0001.59,0000.93
2023-03-01 06:16:00,,0817.1,5.00,0.00,21.9,21.6,00.0,30.7,23.6,06.4,0000.0,0003.75,0001.56,0000.93
2023-03-01 06:17:00,,0817.1,5.00,0.00,21.9,21.1,00.0,30.7,23.4,06.3,0000.0,0003.42,0001.55,0000.93
2023-03-01 06:18:00,,0817.1,5.00,0.00,21.8,20.7,00.0,30.7,23.3,06.4,0000.0,0004.66,0001.54,0000.92
2023-03-01 06:19:00,,0817.1,5.00,0.00,21.8,20.3,00.0,30.6,23.2,06.5,0000.0,0005.03,0001.56,0000.92
2023-03-01 06:20:00,,0817.1,5.00,0.00,21.7,20.0,00.0,30.6,23.1,06.5,0000.0,0004.88,0001.51,0000.92
2023-03-01 06:21:00,,0817.1,5.00,0.00,21.6,19.8,00.0,30.6,23.0,06.5,0000.0,0004.91,0001.51,0000.92
2023-03-01 06:22:00,,0817.0,5.00,0.00,21.6,19.7,00.0,30.6,23.0,06.5,0000.0,0004.99,0001.53,0000.91
2023-03-01 06:23:00,,0817.0,5.00,0.00,21.6,20.0,00.0,30.6,23.1,06.5,0000.0,0004.99,0001.50,0000.90
2023-03-01 06:24:00,,0817.0,4.98,0.00,21.7,21.3,00.0,30.5,23.4,06.5,0000.0,0005.19,0001.51,0000.91
2023-03-01 06:25:00,,0817.0,4.98,0.00,21.8,22.5,00.0,30.5,23.8,06.4,0000.0,0005.16,0001.47,0000.90
2023-03-01 06:26:00,,0817.0,4.94,0.00,22.0,23.1,00.0,30.6,24.0,06.4,0000.0,0005.16,0001.48,0000.90
2023-03-01 06:27:00,,0817.0,4.99,0.00,22.0,22.4,00.0,30.6,23.9,06.3,0000.0,0005.24,0001.50,0000.90
2023-03-01 06:28:00,,0817.0,5.01,0.00,22.0,21.6,00.0,30.6,23.6,06.3,0000.0,0005.33,0001.48,0000.91
2023-03-01 06:29:00,,0817.0,5.00,0.00,21.9,21.0,00.0,30.6,23.3,06.4,0000.0,0004.27,0001.49,0000.91
2023-03-01 06:30:00,,0817.0,5.00,0.00,21.8,20.5,00.0,30.6,23.2,06.4,0000.0,0003.50,0001.46,0000.91
2023-03-01 06:31:00,,0817.0,5.01,0.00,21.7,20.1,00.0,30.6,23.0,06.5,0000.0,0003.68,0001.45,0000.91
2023-03-01 06:32:00,,0817.0,5.00,0.00,21.6,19.8,00.0,30.6,22.8,06.5,0000.0,0004.07,0001.45,0000.91
2023-03-01 06:33:00,,0817.0,5.01,0.00,21.4,19.5,00.0,30.5,22.7,06.5,0000.0,0003.89,0001.43,0000.92
2023-03-01 06:34:00,,0817.0,5.02,0.00,21.4,20.2,00.0,30.5,22.9,06.5,0000.0,0003.92,0001.47,0000.93
2023-03-01 06:35:00,,0817.0,4.96,0.00,21.6,21.6,00.0,30.5,23.4,06.3,0000.0,0003.73,0001.46,0000.93
2023-03-01 06:36:00,,0817.1,5.03,0.00,21.7,22.6,00.0,30.5,23.7,06.3,0000.0,0003.64,0001.47,0000.93
2023-03-01 06:37:00,,0817.0,4.99,0.00,21.9,22.6,00.0,30.5,23.8,06.4,0000.0,0003.60,0001.45,0000.93
2023-03-01 06:38:00,,0816.9,4.99,0.00,21.8,21.7,00.0,30.6,23.5,06.3,0000.0,0003.58,0001.44,0000.93
2023-03-01 06:39:00,,0817.0,5.01,0.00,21.8,21.1,00.0,30.6,23.4,06.3,0000.0,0003.67,0001.47,0000.93
2023-03-01 06:40:00,,0817.0,5.00,0.00,21.7,20.6,00.0,30.6,23.2,06.3,0000.0,0004.08,0001.48,0000.94
2023-03-01 06:41:00,,0817.0,5.02,0.00,21.7,20.3,00.0,30.6,23.2,06.2,0000.0,0004.01,0001.45,0000.95
2023-03-01 06:42:00,,0816.9,4.99,0.00,21.6,20.0,00.0,30.5,23.0,06.3,0000.0,0004.44,0001.46,0000.94
2023-03-01 06:43:00,,0817.1,5.01,0.00,21.6,19.7,00.0,30.5,22.9,06.3,0000.0,0003.89,0001.49,0000.94
2023-03-01 06:44:00,,0817.2,4.99,0.00,21.5,19.5,00.0,30.5,22.8,06.4,0000.0,0003.87,0001.50,0000.93
2023-03-01 06:45:00,,0817.4,5.02,0.00,21.4,20.0,00.0,30.4,22.9,06.4,0000.0,0003.75,0001.46,0000.93
2023-03-01 06:46:00,,0817.0,4.99,0.00,21.6,21.2,00.0,30.4,23.3,06.3,0000.0,0003.72,0001.47,0000.94
2023-03-01 06:47:00,,0817.1,5.01,0.00,21.7,22.3,00.0,30.4,23.6,06.3,0000.0,0004.38,0001.47,0000.95
2023-03-01 06:48:00,,0817.2,5.01,0.00,21.8,22.6,00.0,30.5,23.7,06.3,0000.0,0004.52,0001.47,0000.95
2023-03-01 06:49:00,,0816.8,5.01,0.00,21.8,21.8,00.0,30.5,23.5,06.3,0000.0,0004.58,0001.50,0000.95
2023-03-01 06:50:00,,0816.9,4.99,0.00,21.7,21.0,00.0,30.5,23.2,06.3,0000.0,0005.05,0001.51,0000.94
2023-03-01 06:51:00,,0816.9,5.01,0.00,21.6,20.4,00.0,30.5,23.0,06.3,0000.0,0004.76,0001.50,0000.95
2023-03-01 06:52:00,,0816.9,5.01,0.00,21.5,19.9,00.0,30.5,22.8,06.3,0000.0,0004.72,0001.50,0000.95
2023-03-01 06:53:00,,0817.0,5.01,0.00,21.5,19.6,00.0,30.4,22.8,06.4,0000.0,0004.54,0001.52,0000.95
2023-03-01 06:54:00,,0817.0,5.00,0.00,21.4,19.4,00.0,30.4,22.7,06.4,0000.0,0004.45,0001.52,0000.95
2023-03-01 06:55:00,,0817.0,4.99,0.00,21.3,19.3,00.0,30.4,22.6,06.4,0000.0,0004.47,0001.53,0000.95
2023-03-01 06:56:00,,0817.1,5.02,0.00,21.3,20.3,00.0,30.3,22.9,06.4,0000.0,0004.73,0001.61,0000.95
2023-03-01 06:57:00,,0816.9,4.93,0.00,21.5,21.7,00.0,30.3,23.3,06.2,0000.0,0004.84,0001.61,0000.94
2023-03-01 06:58:00,,0816.9,4.91,0.00,21.6,22.5,00.0,30.4,23.6,06.2,0000.0,0004.47,0001.65,0000.95
2023-03-01 06:59:00,,0816.8,4.99,0.00,21.7,22.0,00.0,30.4,23.5,06.2,0000.0,0004.30,0001.67,0000.95
